STARLINK-30374, 57809

Orbit data source: Space-Track

STARLINK-30374, 57809 is a payload satellite owned by SpaceX/Seattle (US) in LEO that was launched on Sat, 09 Sep 2023 UTC via an FALCON 9 launch vehicle from the Air Force Eastern Test Range (AFETR). Payload-class satellites include a variety of spacecraft equipped with specific instruments for various scientific and technological missions. These include communications satellites like Starlink; space stations such as the ISS; scientific satellites like the Hubble; Earth observation satellites from companies like Planet Labs, Umbra, and HawkEye 360; GPS; miniature CubeSats for education and research; and military/defense satellites.

Loading next visibility...
Identifier
57809, 2023-138B
Orbit
LEO
Country
Flag of USUS
Related business
Manufacturer
SpaceX/Seattle
Mission
Operational Commercial Communications
Bus & Motor
STARLINK V2M, Unknown motor
Mass
730 kg wet, ~700 kg dry
Launch date (UTC)
2023-09-09 (3 years ago)
Launch vehicle
FALCON 9
Launch site
Air Force Eastern Test Range (AFETR)
Object type
Payload
Rocket body
Debris
Shape & HBR
Box + 2 Pan, 17.7 m
Radar Cross Section
33.884 m², Large (>1 m²)

Expand to show TLE details & history
Last TLE update: 2 days ago

TLE from 2 days ago
0 STARLINK-30374
1 57809U 23138B   26171.29471317  .00000744  00000-0  36561-4 0  9997
2 57809  43.0017  14.4566 0001317 284.4268  75.6437 15.27577223154438
Epoch: 2026-06-20T07:04Z
TLE epoch observation values (Epoch: 2026-06-20T07:04:23.217Z)
Latitude
-0.00007°
Longitude
-0.1516°
Altitude
482.609 km
Speed
7.626 km/s
True Right ascension
00h 57m 49s
True Declination
0° 00' 00"
Sunlit
Object was in daylight at epoch
Visualization orbit readout
Latitude
Unknown
Longitude
Unknown
Altitude
Unknown
Speed
Unknown
Apparent Right ascension
Unknown
Apparent Declination
Unknown
Sunlit
N/A
Visualization observer readout
Local Sidereal Time
21:25:55
Azimuth
Unknown
Elevation
Unknown
Doppler factor
Unknown
Orbital elements
Apogee altitude
485.906 km
Perigee altitude
484.098 km
Semi-major axis
6,863.139 km
Eccentricity
0.00013
Inclination
43.0017°
RAAN
14.4566°
Arg. of periapsis
284.4268°
True anomaly
75.65832°
Mean anomaly
75.6437°
Eccentric anomaly
75.65101°
Mean motion
3.81732 °/min
Orbital period
94.31 mins
BSTAR
0.000036561
Loading maneuver chart data...
Computing Atmospheric mass density...
Loading historical data...
Loading historical data...
Loading historical data...
Loading historical data...
Loading historical data...
Loading historical data...
Loading historical data...

Documentation

Showing up to 5 results
|